Home   Weather   Bournemouth   Past weeks

Flag for United Kingdom Past Weather in Bournemouth, England, United Kingdom — Yesterday and Last 2 Weeks

Now
54 °F

Sunny.


Feels Like: 49 °F
Forecast: 46 / 52 °F
Wind: 15 mph from East

Location: Bournemouth Airport

Current Time: Apr 30, 2017 at 8:31:03 am

Latest Report: Apr 30, 2017 at 7:50 am


Visibility: 10 mi

Pressure: 29.53 "Hg

Humidity: 67%

Dew Point: 43 °F

Location of BournemouthLocation

Past Weather in Bournemouth — Graph

°F

Bournemouth Temperature Yesterday

Maximum temperature yesterday: 57 °F (at 1:20 pm)
Minimum temperature yesterday: 43 °F (at 5:50 am)
Average temperature yesterday: 53 °F

High & Low Weather Summary for the Past Weeks

 TemperatureHumidityPressure
High63 °F (Apr 22, 3:20 pm)100% (Apr 20, 7:20 am)30.63 "Hg (Apr 20, 7:20 am)
Low27 °F (Apr 27, 5:50 am)31% (Apr 18, 3:20 pm)29.56 "Hg (Apr 30, 6:50 am)
Average51 °F67%30.21 "Hg
* Reported Apr 15 7:20 am — Apr 30 7:20 am, Bournemouth, Weather by CustomWeather, © 2017

Note: Actual official high and low records may vary slightly from our data, if they occured in-between our weather recording intervals... More about our weather records

Advertising

Bournemouth Weather History for the Previous 24 Hours

Scroll right to see more
 ConditionsComfort  
Time TempWeatherWind HumidityBarometerVisibility
7:20 am
Sun, Apr 30
54 °FSunny.15 mph63%29.56 "Hg10 mi
6:50 am54 °FSunny.15 mph63%29.56 "Hg10 mi
6:20 am54 °FSunny.14 mph63%29.59 "Hg10 mi
5:50 am52 °FSunny.13 mph62%29.59 "Hg10 mi
11:50 pm
Sat, Apr 29
55 °FClear.17 mph63%29.71 "Hg10 mi
11:20 pm55 °FClear.15 mph63%29.74 "Hg10 mi
10:50 pm55 °FClear.15 mph63%29.74 "Hg10 mi
10:20 pm55 °FClear.15 mph59%29.74 "Hg10 mi
9:50 pm55 °FClear.15 mph59%29.77 "Hg10 mi
9:20 pm55 °FClear.13 mph59%29.77 "Hg10 mi
8:50 pm54 °FClear.13 mph63%29.77 "Hg10 mi
8:20 pm54 °FSunny.13 mph63%29.80 "Hg10 mi
7:50 pm54 °FSunny.12 mph63%29.80 "Hg10 mi
7:20 pm55 °FSunny.12 mph59%29.80 "Hg10 mi
6:50 pm55 °FSunny.13 mph59%29.80 "Hg10 mi
6:20 pm55 °FSunny.14 mph63%29.83 "Hg10 mi
5:50 pm57 °FPassing clouds.14 mph55%29.83 "HgN/A
5:20 pm57 °FPassing clouds.14 mph55%29.86 "HgN/A
4:20 pm57 °FPassing clouds.16 mph51%29.86 "HgN/A
3:50 pm57 °FPassing clouds.14 mph55%29.89 "HgN/A
3:20 pm57 °FPassing clouds.15 mph59%29.89 "HgN/A
2:50 pm55 °FPassing clouds.14 mph63%29.92 "HgN/A
2:20 pm57 °FPassing clouds.15 mph59%29.92 "HgN/A
1:20 pm57 °FScattered clouds.15 mph59%29.95 "HgN/A
12:50 pm55 °FScattered clouds.13 mph63%29.95 "HgN/A
12:20 pm54 °FScattered clouds.13 mph67%29.95 "HgN/A
11:50 am54 °FScattered clouds.13 mph67%29.95 "HgN/A
11:20 am54 °FScattered clouds.13 mph72%29.98 "HgN/A
10:50 am52 °FScattered clouds.12 mph77%29.98 "HgN/A
10:20 am52 °FBroken clouds.12 mph82%29.98 "HgN/A
9:50 am52 °FBroken clouds.9 mph82%29.98 "HgN/A
9:20 am48 °FBroken clouds.2 mph87%29.98 "HgN/A
8:50 am46 °FBroken clouds.3 mph87%29.98 "HgN/A
8:20 am46 °FBroken clouds.3 mph82%29.98 "HgN/A
Weather by CustomWeather, © 2017

See weather overviewHow to use our weather pages